{"data":{"norad_id":43032,"intl_designator":"2017-076A","name":"COSMOS 2524","alt_names":[],"object_type":"PAYLOAD","status":"ACTIVE","operator":null,"country":"CIS","launch_date":"2017-12-02","launch_site_code":"PLMSC","launch_vehicle":null,"mission":null,"orbit_class":"UNKNOWN","rcs_meters":null,"size_class":null,"mass_kg":null,"dimensions":null,"purposes":[],"wikipedia_slug":null,"has_3d_model":false,"image_url":null,"decayed_at":null,"tle_current":{"epoch":"2026-05-25T04:45:33.253920Z","epoch_age_seconds":53812,"freshness":"FRESH","line1":"1 43032U 17076A   26145.19830155  .00000452  00000+0  37520-3 0  9993","line2":"2 43032  67.1463 248.4372 0006332 227.8759 132.1789 13.97427394432396","mean_motion":13.97427394,"eccentricity":0.0006332,"inclination_deg":67.1463,"raan_deg":248.4372,"arg_perigee_deg":227.8759,"mean_anomaly_deg":132.1789,"bstar":0.0003752,"rev_number":43239,"period_min":103.04649860041,"perigee_km":898.10705167978,"apogee_km":907.32752555088,"semimajor_km":7280.8542886153,"source":"CELESTRAK","updated_at":"2026-05-25T13:37:55.757436Z"}}}